Location: Baix
(44.7118°N, 4.7648°E)
Time: 11:52:42
(UTC+00:00)

Altair - All Passes

Search period start: 30 November 2020 00:00
Search period end: 10 December 2020 00:00
Orbit: 1502 x 1682 km, 47.2° (Epoch: 30 November)

Date Brightness Start Highest point End Pass type
(mag) Time Alt. Az. Time Alt. Az. Time Alt. Az.
30 Nov - 00:24:14 10° WNW 00:33:29 89° SSW 00:42:46 10° ESE night (unlit)
30 Nov - 02:29:09 10° WNW 02:37:36 43° SW 02:46:10 10° SSE visible
30 Nov - 04:38:45 10° WSW 04:40:21 10° WSW 04:41:56 10° SW visible
30 Nov - 17:47:48 10° S 17:55:00 25° SE 18:02:02 10° E visible
30 Nov - 19:49:11 10° SW 19:58:30 68° SSE 20:07:35 10° ENE visible
30 Nov - 21:53:53 10° W 22:03:13 78° N 22:12:27 10° E visible
30 Nov - 23:59:03 10° WNW 00:08:19 88° NNE 00:17:35 10° ESE night (unlit)
01 Dec - 02:03:56 10° WNW 02:12:31 46° SW 02:21:12 10° SSE visible
01 Dec - 04:12:08 10° WSW 04:15:21 12° WSW 04:18:36 10° SW visible
01 Dec - 17:23:07 10° S 17:29:58 23° SE 17:36:40 10° E visible
01 Dec - 19:24:05 10° SW 19:33:22 64° SSE 19:42:25 10° ENE visible
01 Dec - 21:28:40 10° W 21:38:02 79° N 21:47:15 10° E visible
01 Dec - 23:33:53 10° WNW 23:43:08 86° NNE 23:52:24 10° ESE night (unlit)
02 Dec - 01:38:44 10° WNW 01:47:26 49° SW 01:56:12 10° SSE visible
02 Dec - 03:46:09 10° W 03:50:22 14° SW 03:54:37 10° SSW visible
02 Dec - 16:58:27 10° S 17:04:56 21° SE 17:11:16 10° E visible
02 Dec - 18:58:59 10° SW 19:08:15 61° SSE 19:17:15 10° ENE visible
02 Dec - 21:03:27 10° W 21:12:50 80° N 21:22:04 10° ENE visible
02 Dec - 23:08:41 10° WNW 23:17:58 84° NNE 23:27:12 10° ESE night (unlit)
03 Dec - 01:13:33 10° WNW 01:22:21 53° SW 01:31:12 10° SE night (unlit)
03 Dec - 03:20:25 10° W 03:25:22 16° SW 03:30:21 10° SSW visible
03 Dec - 16:33:54 10° SSE 16:39:54 19° SE 16:45:47 10° E visible
03 Dec - 18:33:55 10° SW 18:43:08 57° SE 18:52:05 10° ENE visible
03 Dec - 20:38:13 10° W 20:47:39 82° NNW 20:56:53 10° ENE visible
03 Dec - 22:43:28 10° WNW 22:52:47 82° NNE 23:02:00 10° E visible
04 Dec - 00:48:22 10° WNW 00:57:15 56° SW 01:06:10 10° SE night (unlit)
04 Dec - 02:54:49 10° W 03:00:21 18° SW 03:05:57 10° SSW visible
04 Dec - 16:09:26 10° SSE 16:14:53 17° SE 16:20:14 10° E daylight
04 Dec - 18:08:51 10° SW 18:18:01 54° SE 18:26:54 10° ENE visible
04 Dec - 20:13:00 10° WSW 20:22:27 84° NNW 20:31:42 10° ENE visible
04 Dec - 22:18:16 10° WNW 22:27:35 81° N 22:36:49 10° E visible
05 Dec - 00:23:10 10° WNW 00:32:08 60° SSW 00:41:07 10° SE night (unlit)
05 Dec - 02:29:18 10° W 02:35:21 20° SW 02:41:27 10° S night (unlit)
05 Dec - 15:45:05 10° SSE 15:49:52 15° SE 15:54:34 10° E daylight
05 Dec - 17:43:49 10° SW 17:52:54 50° SE 18:01:44 10° ENE visible
05 Dec - 19:47:47 10° WSW 19:57:16 86° NNW 20:06:32 10° ENE visible
05 Dec - 21:53:03 10° W 22:02:24 79° N 22:11:37 10° E visible
05 Dec - 23:57:59 10° WNW 00:07:01 63° SSW 00:16:04 10° SE night (unlit)
06 Dec - 02:03:52 10° W 02:10:20 22° SW 02:16:51 10° S night (unlit)
06 Dec - 15:20:56 10° SSE 15:24:51 13° ESE 15:28:44 10° E daylight
06 Dec - 17:18:47 10° SSW 17:27:48 47° SE 17:36:32 10° ENE visible
06 Dec - 19:22:34 10° WSW 19:32:05 88° NNW 19:41:21 10° ENE visible
06 Dec - 21:27:50 10° W 21:37:12 78° N 21:46:25 10° E visible
06 Dec - 23:32:48 10° WNW 23:41:54 67° SSW 23:50:59 10° SE night (unlit)
07 Dec - 01:38:28 10° W 01:45:19 24° SW 01:52:11 10° S night (unlit)
07 Dec - 14:57:09 10° SE 14:59:51 11° ESE 15:02:32 10° ESE daylight
07 Dec - 16:53:48 10° SSW 17:02:43 44° SE 17:11:21 10° ENE visible
07 Dec - 18:57:21 10° WSW 19:06:54 90° SSE 19:16:11 10° ENE visible
07 Dec - 21:02:37 10° W 21:12:00 77° N 21:21:13 10° E visible
07 Dec - 23:07:37 10° WNW 23:16:47 71° SSW 23:25:53 10° SE night (unlit)
08 Dec - 01:13:07 10° W 01:20:17 26° SW 01:27:29 10° S night (unlit)
08 Dec - 16:28:49 10° SSW 16:37:37 41° SE 16:46:08 10° ENE visible
08 Dec - 18:32:08 10° WSW 18:41:44 87° SSE 18:51:02 10° ENE visible
08 Dec - 20:37:23 10° W 20:46:48 77° N 20:56:02 10° E visible
08 Dec - 22:42:26 10° WNW 22:51:39 74° SSW 23:00:47 10° SE visible
09 Dec - 00:47:47 10° WNW 00:55:15 29° SW 01:02:44 10° S night (unlit)
09 Dec - 16:03:53 10° SSW 16:12:32 38° SE 16:20:55 10° ENE daylight
09 Dec - 18:06:56 10° WSW 18:16:34 84° SSE 18:25:52 10° ENE visible
09 Dec - 20:12:09 10° W 20:21:36 77° N 20:30:50 10° E visible
09 Dec - 22:17:14 10° WNW 22:26:31 77° SSW 22:35:40 10° ESE visible
